Altus AFB, OK

4:23 PM CDT on March 25, 2017 (GMT -0500)
Altus Air Force Base

Weather History for KLTS - October, 2013

Change the Weather History Date:

Thursday, October 24, 2013

  Actual Average Record
Temperature  
Mean Temperature 56 °F -  
Max Temperature 66 °F 70 °F 91 °F (2003)
Min Temperature 45 °F 47 °F 30 °F (2005)
Degree Days  
Heating Degree Days 9    
Growing Degree Days 6 (Base 50)    
Moisture  
Dew Point 42 °F    
Average Humidity 63    
Maximum Humidity 92    
Minimum Humidity 36    
Precipitation  
Precipitation 0.00 in - - ()
Sea Level Pressure  
Sea Level Pressure 30.23 in    
Wind  
Wind Speed 12 mph (NE)    
Max Wind Speed 26 mph    
Max Gust Speed 34 mph    
Visibility 10 miles    
Events      
Averages and records for this station are not official NWS values.
T = Trace of Precipitation, MM = Missing Value Source: NWS Daily Summary

Daily Weather History Graph

Daily Weather History Graph

Search for Another Location

Airport or City:

Trip Planner

Search our weather history database for the weather conditions in past years. The results will help you decide how hot, cold, wet, or windy it might be!

Date:

Astronomy

Oct. 24, 2013 Rise Set
Actual Time 7:50 AM CDT 6:51 PM CDT
Civil Twilight 7:24 AM CDT 7:17 PM CDT
Nautical Twilight 6:55 AM CDT 7:46 PM CDT
Astronomical Twilight 6:26 AM CDT 8:15 PM CDT
Moon 11:22 PM CDT (10/24) 12:47 PM CDT (10/24)
Length of Visible Light 11h 52m
Length of Day
11h 00m
Waning Gibbous, 71% of the Moon is Illuminated
Oct 24
Waning Gibbous
Oct 26
Last Quarter
Nov 3
New
Nov 9
First Quarter
Nov 17
Full

Hourly Weather History & Observations

Time (CDT) Temp. Windchill Dew Point Humidity Pressure Visibility Wind Dir Wind Speed Gust Speed Precip Events Conditions
12:58 AM 58.5 °F - 48.6 °F 70% 30.06 in 10.0 mi NNE 12.7 mph - N/A   Clear
1:58 AM 57.6 °F - 48.0 °F 70% 30.07 in 10.0 mi NE 12.7 mph - N/A   Clear
2:58 AM 55.0 °F - 47.5 °F 76% 30.08 in 10.0 mi NE 9.2 mph - N/A   Clear
3:58 AM 53.6 °F - 47.1 °F 79% 30.08 in 10.0 mi NE 10.4 mph - N/A   Clear
4:58 AM 51.3 °F - 46.4 °F 83% 30.12 in 10.0 mi NE 4.6 mph - N/A   Clear
5:58 AM 48.7 °F - 46.0 °F 90% 30.14 in 10.0 mi NNE 3.5 mph - N/A   Clear
6:58 AM 49.1 °F - 46.8 °F 92% 30.17 in 10.0 mi NNE 10.4 mph - N/A   Clear
7:58 AM 49.8 °F - 44.4 °F 82% 30.21 in 10.0 mi NNE 16.1 mph - N/A   Clear
8:58 AM 49.8 °F - 43.3 °F 78% 30.25 in 10.0 mi NE 17.3 mph 23.0 mph N/A   Clear
9:58 AM 52.7 °F - 41.9 °F 67% 30.27 in 10.0 mi NE 26.5 mph 34.5 mph N/A   Clear
10:58 AM 56.7 °F - 39.6 °F 53% 30.29 in 10.0 mi NE 18.4 mph 26.5 mph N/A   Clear
11:58 AM 58.8 °F - 37.8 °F 46% 30.31 in 10.0 mi ENE 19.6 mph 23.0 mph N/A   Clear
12:58 PM 63.1 °F - 38.1 °F 40% 30.30 in 10.0 mi ENE 13.8 mph - N/A   Clear
1:58 PM 65.3 °F - 38.1 °F 37% 30.27 in 10.0 mi ENE 12.7 mph 19.6 mph N/A   Clear
2:58 PM 66.0 °F - 38.7 °F 37% 30.25 in 10.0 mi NE 11.5 mph 20.7 mph N/A   Clear
3:58 PM 66.6 °F - 38.8 °F 36% 30.25 in 10.0 mi NE 12.7 mph 20.7 mph N/A   Clear
4:58 PM 65.7 °F - 38.5 °F 37% 30.24 in 10.0 mi ENE 13.8 mph - N/A   Clear
5:58 PM 63.3 °F - 38.3 °F 40% 30.25 in 10.0 mi NE 13.8 mph - N/A   Clear
6:58 PM 57.7 °F - 38.8 °F 49% 30.27 in 10.0 mi ENE 8.1 mph - N/A   Clear
7:58 PM 52.5 °F - 39.6 °F 61% 30.29 in 10.0 mi NE 6.9 mph - N/A   Clear
8:58 PM 50.4 °F - 38.8 °F 65% 30.30 in 10.0 mi NNE 10.4 mph - N/A   Clear
9:58 PM 48.2 °F - 38.5 °F 69% 30.32 in 10.0 mi NNE 10.4 mph - N/A   Clear
10:58 PM 46.6 °F - 38.1 °F 72% 30.34 in 10.0 mi NNE 9.2 mph - N/A   Clear
11:58 PM 45.3 °F 40.6 °F 38.3 °F 76% 30.35 in 10.0 mi NNE 9.2 mph - N/A   Clear